Date,TemperatureHighF,TemperatureAvgF,TemperatureLowF,DewpointHighF,DewpointAvgF,DewpointLowF,HumidityHigh,HumidityAvg,HumidityLow,PressureMaxIn,PressureMinIn,WindSpeedMaxMPH,WindSpeedAvgMPH,GustSpeedMaxMPH,PrecipitationSumIn
2013-3-1,61.0,50.4,41.2,38.5,35.4,31.1,82,58,37,30.18,30.07,21,2,22,0.00
2013-3-2,49.5,41.9,34.5,34.3,30.2,26.8,84,64,47,30.27,30.17,16,2,19,0.00
2013-3-3,58.6,43.3,29.1,38.1,30.4,25.5,92,63,34,30.31,30.14,12,0,12,1.44
2013-3-4,71.4,57.9,41.4,58.3,49.2,36.9,90,74,56,30.14,29.91,23,4,25,0.01
2013-3-5,75.6,66.0,56.5,64.4,53.6,36.1,91,67,35,30.20,29.90,18,3,21,0.00
2013-3-6,65.5,54.2,41.7,36.5,30.6,26.6,58,41,28,30.35,30.21,14,2,17,0.00
2013-3-7,63.7,51.0,39.0,41.5,36.4,31.8,76,58,41,30.36,30.22,12,1,14,0.00
2013-3-8,70.2,56.3,43.0,48.9,42.2,36.5,92,63,33,30.30,30.16,11,1,14,0.00
2013-3-9,70.0,62.1,52.3,61.0,55.0,47.1,89,78,70,30.20,29.94,21,4,21,0.00
2013-3-10,78.6,69.4,60.8,66.9,62.7,58.6,93,80,61,29.96,29.83,29,4,31,0.00
2013-3-11,62.8,52.5,44.2,58.8,44.9,38.8,95,78,46,30.05,29.89,19,3,20,0.43
2013-3-12,70.3,54.8,39.7,43.3,39.1,35.4,88,59,35,30.23,30.04,11,1,12,0.34
2013-3-13,71.4,57.8,44.1,40.6,34.7,23.2,79,46,18,30.41,30.22,15,2,19,0.01
2013-3-14,72.1,56.4,43.2,44.2,32.6,21.9,65,42,27,30.45,30.29,16,1,17,0.00
2013-3-15,78.4,60.8,45.3,53.2,46.9,42.6,91,64,31,30.32,30.12,14,1,20,0.00
2013-3-16,76.6,64.5,51.6,59.5,54.4,49.1,93,72,48,30.15,29.94,15,2,21,0.00
2013-3-17,79.2,67.9,59.0,66.6,61.3,55.9,93,81,57,29.98,29.80,18,2,19,0.00
2013-3-18,85.3,74.0,68.7,69.4,67.3,65.5,93,81,57,29.89,29.75,15,1,17,0.00
2013-3-19,76.5,67.1,55.2,66.7,53.0,42.6,85,62,38,30.03,29.88,18,4,20,0.00
2013-3-20,74.7,63.0,54.1,56.3,42.5,27.3,84,51,23,30.18,29.98,14,1,17,0.01
2013-3-21,64.4,56.8,48.7,46.2,36.7,27.9,67,48,32,30.06,29.84,17,3,18,0.00
2013-3-22,79.5,66.3,57.0,69.1,60.1,46.2,91,81,67,29.90,29.73,13,3,15,0.01
2013-3-23,70.3,67.8,65.5,69.1,66.2,64.0,97,95,91,29.81,29.56,12,1,13,0.00
2013-3-24,70.2,62.4,50.7,68.9,51.8,32.5,96,72,31,30.01,29.59,23,4,30,0.01
2013-3-25,60.6,50.2,38.5,34.7,29.0,23.4,76,47,24,30.26,30.01,17,3,21,0.00
2013-3-26,59.7,48.8,37.6,29.8,27.0,23.2,64,44,31,30.42,30.26,16,2,18,0.00
2013-3-27,67.1,50.0,35.4,37.2,31.3,28.6,81,52,27,30.45,30.26,12,1,13,0.00
2013-3-28,70.9,55.8,41.4,48.0,41.3,36.9,89,62,34,30.36,30.22,12,1,13,0.00
2013-3-29,77.0,61.3,47.1,55.9,49.5,43.2,89,67,40,30.32,30.17,17,1,17,0.00
2013-3-30,77.2,65.4,54.9,61.3,56.9,51.8,94,76,49,30.20,30.01,15,1,19,0.00
2013-3-31,79.5,63.9,58.5,66.7,60.6,57.2,97,90,63,30.05,29.88,19,1,29,0.05